Radiation Dose at Monitoring Post of Fukushima Daini Nuclear Power Station
Date,Time,MP-1(microSv/h),MP-2(microSv/h),MP-3(microSv/h),MP-4(microSv/h),MP-5(microSv/h),MP-6(microSv/h),MP-7(microSv/h),Wind Direction,Wind Velocity(m/s),Rain
2020/05/10,00:00,0.184,0.169,0.283,0.256,0.266,0.148,0.092,south-southwest,8.1,Yes
2020/05/10,00:10,0.184,0.168,0.280,0.255,0.261,0.146,0.092,south-southwest,7.5,No
2020/05/10,00:20,0.182,0.169,0.281,0.253,0.265,0.146,0.090,south-southwest,6.9,Yes
2020/05/10,00:30,0.184,0.168,0.280,0.253,0.262,0.146,0.090,south-southwest,6.2,Yes
2020/05/10,00:40,0.183,0.167,0.281,0.256,0.264,0.145,0.090,south-southwest,5.2,Yes
2020/05/10,00:50,0.184,0.168,0.279,0.252,0.262,0.146,0.090,south-southwest,4.9,Yes
2020/05/10,01:00,0.181,0.167,0.279,0.253,0.263,0.144,0.089,south-southwest,4.4,Yes
2020/05/10,01:10,0.182,0.167,0.278,0.252,0.261,0.144,0.088,south-southwest,3.9,Yes
2020/05/10,01:20,0.181,0.166,0.278,0.251,0.262,0.144,0.088,south-southwest,4.2,No
2020/05/10,01:30,0.181,0.166,0.278,0.249,0.260,0.143,0.087,south-southwest,3.4,No
2020/05/10,01:40,0.180,0.165,0.276,0.250,0.258,0.143,0.087,south-southwest,3.5,No
2020/05/10,01:50,0.180,0.165,0.278,0.251,0.259,0.142,0.087,south-southwest,4.4,No
2020/05/10,02:00,0.179,0.164,0.276,0.250,0.259,0.141,0.086,south-southwest,4.8,No
2020/05/10,02:10,0.180,0.164,0.277,0.251,0.259,0.142,0.086,south-southwest,4.1,No
2020/05/10,02:20,0.179,0.164,0.275,0.250,0.258,0.142,0.086,south-southwest,4.2,No
2020/05/10,02:30,0.179,0.164,0.276,0.250,0.259,0.141,0.086,south-southwest,4.2,No
2020/05/10,02:40,0.180,0.165,0.275,0.250,0.258,0.142,0.085,south,3.7,No
2020/05/10,02:50,0.178,0.164,0.275,0.250,0.260,0.141,0.086,south-southwest,4.3,No
2020/05/10,03:00,0.179,0.165,0.278,0.250,0.258,0.141,0.086,south-southwest,4.4,No
2020/05/10,03:10,0.178,0.163,0.275,0.249,0.261,0.141,0.085,south-southwest,4.3,No
2020/05/10,03:20,0.181,0.163,0.276,0.248,0.257,0.141,0.085,south-southwest,3.0,No
2020/05/10,03:30,0.179,0.163,0.275,0.249,0.260,0.140,0.085,south-southwest,3.0,No
2020/05/10,03:40,0.179,0.163,0.276,0.250,0.257,0.141,0.084,south-southwest,3.4,No
2020/05/10,03:50,0.178,0.163,0.273,0.249,0.258,0.141,0.085,south-southwest,4.9,No
2020/05/10,04:00,0.179,0.164,0.276,0.249,0.257,0.141,0.085,south,5.7,No
2020/05/10,04:10,0.178,0.164,0.276,0.249,0.261,0.141,0.086,south,5.8,No
2020/05/10,04:20,0.178,0.163,0.275,0.250,0.258,0.142,0.085,south,4.9,No
2020/05/10,04:30,0.178,0.164,0.277,0.250,0.260,0.141,0.085,south-southwest,4.8,No
2020/05/10,04:40,0.179,0.163,0.273,0.248,0.258,0.141,0.086,south,4.5,No
2020/05/10,04:50,0.178,0.164,0.277,0.250,0.259,0.141,0.085,south,3.9,No
2020/05/10,05:00,0.180,0.163,0.274,0.248,0.258,0.141,0.085,south,3.8,No
2020/05/10,05:10,0.179,0.164,0.276,0.250,0.259,0.140,0.084,south,3.6,No
2020/05/10,05:20,0.180,0.164,0.276,0.250,0.257,0.141,0.086,south,3.8,Yes
2020/05/10,05:30,0.178,0.163,0.275,0.252,0.259,0.141,0.085,south-southwest,3.8,Yes
2020/05/10,05:40,0.180,0.164,0.276,0.251,0.259,0.142,0.086,south-southwest,3.6,Yes
2020/05/10,05:50,0.179,0.164,0.276,0.250,0.260,0.142,0.087,south,3.9,No
2020/05/10,06:00,0.180,0.164,0.276,0.251,0.259,0.142,0.087,south-southwest,3.7,Yes
2020/05/10,06:10,0.181,0.166,0.276,0.251,0.260,0.144,0.088,south-southwest,3.5,Yes
2020/05/10,06:20,0.180,0.165,0.278,0.251,0.260,0.143,0.087,south-southwest,4.0,No
2020/05/10,06:30,0.180,0.165,0.276,0.251,0.259,0.145,0.088,south,4.2,Yes
2020/05/10,06:40,0.181,0.166,0.278,0.253,0.262,0.144,0.089,south-southwest,4.1,Yes
2020/05/10,06:50,0.182,0.167,0.277,0.252,0.263,0.145,0.090,south,5.0,Yes
2020/05/10,07:00,0.182,0.167,0.278,0.253,0.261,0.145,0.090,south,4.9,No
2020/05/10,07:10,0.182,0.166,0.275,0.250,0.260,0.144,0.088,south,4.5,Yes
2020/05/10,07:20,0.183,0.166,0.280,0.253,0.261,0.145,0.089,south,3.0,No
2020/05/10,07:30,0.182,0.168,0.275,0.251,0.261,0.145,0.089,south,3.6,No
2020/05/10,07:40,0.182,0.166,0.277,0.253,0.260,0.143,0.088,south,3.5,Yes
2020/05/10,07:50,0.181,0.166,0.274,0.250,0.261,0.143,0.087,south,2.9,Yes
2020/05/10,08:00,0.180,0.167,0.277,0.252,0.258,0.143,0.087,south,3.8,Yes
2020/05/10,08:10,0.180,0.164,0.275,0.249,0.260,0.144,0.088,south,4.3,No
2020/05/10,08:20,0.180,0.165,0.276,0.250,0.258,0.143,0.086,south,4.0,No
2020/05/10,08:30,0.180,0.164,0.274,0.249,0.260,0.142,0.087,south-southwest,4.1,No
2020/05/10,08:40,0.179,0.165,0.275,0.250,0.257,0.141,0.087,south-southwest,4.0,Yes
2020/05/10,08:50,0.178,0.164,0.273,0.249,0.259,0.142,0.087,south,4.8,Yes
2020/05/10,09:00,0.180,0.165,0.275,0.251,0.260,0.144,0.087,south,5.9,Yes
2020/05/10,09:10,0.181,0.166,0.275,0.250,0.261,0.144,0.089,south,6.3,Yes
2020/05/10,09:20,0.183,0.168,0.278,0.252,0.261,0.146,0.090,south,5.2,Yes
2020/05/10,09:30,0.183,0.167,0.277,0.252,0.263,0.146,0.091,south,5.4,Yes
2020/05/10,09:40,0.185,0.169,0.280,0.255,0.263,0.149,0.092,south,5.4,Yes
2020/05/10,09:50,0.185,0.170,0.278,0.254,0.264,0.149,0.094,south,5.4,Yes
2020/05/10,10:00,0.186,0.171,0.279,0.253,0.263,0.149,0.094,south,4.8,Yes
2020/05/10,10:10,0.185,0.171,0.277,0.253,0.265,0.149,0.094,south,4.9,Yes
2020/05/10,10:20,0.186,0.171,0.277,0.254,0.263,0.149,0.095,south-southeast,5.2,Yes
2020/05/10,10:30,0.185,0.171,0.276,0.253,0.264,0.149,0.094,south,6.0,Yes
2020/05/10,10:40,0.185,0.170,0.277,0.252,0.262,0.148,0.093,south,6.4,Yes
2020/05/10,10:50,0.182,0.170,0.274,0.251,0.264,0.146,0.092,south,6.0,Yes
2020/05/10,11:00,0.183,0.168,0.275,0.252,0.261,0.147,0.092,south,4.9,Yes
2020/05/10,11:10,0.182,0.167,0.273,0.251,0.262,0.147,0.091,south,4.8,No
2020/05/10,11:20,0.182,0.166,0.274,0.249,0.259,0.146,0.091,south,5.6,No
2020/05/10,11:30,0.179,0.165,0.271,0.247,0.258,0.142,0.089,south,6.2,No
2020/05/10,11:40,0.179,0.166,0.271,0.247,0.259,0.143,0.088,south-southeast,8.1,No
2020/05/10,11:50,0.178,0.164,0.270,0.245,0.257,0.142,0.087,south-southeast,6.9,No
2020/05/10,12:00,0.178,0.163,0.269,0.247,0.258,0.142,0.086,south,8.7,No
2020/05/10,12:10,0.178,0.163,0.270,0.244,0.255,0.141,0.086,south,9.0,No
2020/05/10,12:20,0.176,0.163,0.268,0.247,0.256,0.140,0.085,south,8.8,No
2020/05/10,12:30,0.178,0.161,0.269,0.245,0.258,0.140,0.085,south,9.3,No
2020/05/10,12:40,0.176,0.162,0.268,0.245,0.254,0.140,0.085,south,8.8,No
2020/05/10,12:50,0.177,0.161,0.267,0.246,0.257,0.140,0.084,south,10.0,No
2020/05/10,13:00,0.177,0.160,0.270,0.243,0.257,0.140,0.085,south,10.3,No
2020/05/10,13:10,0.174,0.161,0.268,0.243,0.255,0.138,0.084,south,10.4,No
2020/05/10,13:20,0.176,0.161,0.267,0.246,0.254,0.139,0.084,south,10.6,No
2020/05/10,13:30,0.177,0.161,0.269,0.243,0.259,0.140,0.085,south,10.4,No
2020/05/10,13:40,0.174,0.160,0.270,0.243,0.256,0.139,0.084,south,9.8,No
2020/05/10,13:50,0.174,0.161,0.268,0.246,0.254,0.139,0.084,south-southeast,9.8,No
2020/05/10,14:00,0.177,0.160,0.267,0.245,0.257,0.139,0.085,south-southeast,9.2,No
2020/05/10,14:10,0.176,0.162,0.270,0.243,0.257,0.139,0.083,south-southeast,8.9,No
2020/05/10,14:20,0.174,0.162,0.269,0.246,0.255,0.139,0.085,south-southeast,8.4,No
2020/05/10,14:30,0.174,0.161,0.268,0.245,0.255,0.139,0.084,south-southeast,9.0,No
2020/05/10,14:40,0.177,0.160,0.267,0.244,0.254,0.139,0.084,south-southeast,8.5,No
2020/05/10,14:50,0.178,0.161,0.270,0.246,0.258,0.139,0.084,south-southeast,8.5,No
2020/05/10,15:00,0.174,0.161,0.271,0.246,0.256,0.139,0.084,south-southeast,9.5,No
2020/05/10,15:10,0.175,0.160,0.269,0.245,0.255,0.139,0.084,south-southeast,10.5,No
2020/05/10,15:20,0.176,0.161,0.268,0.244,0.254,0.139,0.085,south,10.9,No
2020/05/10,15:30,0.177,0.161,0.269,0.248,0.257,0.139,0.084,south-southeast,9.8,No
2020/05/10,15:40,0.176,0.160,0.270,0.246,0.258,0.140,0.084,south-southeast,10.0,No
2020/05/10,15:50,0.175,0.161,0.269,0.244,0.255,0.138,0.084,south-southeast,9.4,No
2020/05/10,16:00,0.176,0.162,0.271,0.247,0.257,0.139,0.084,south,9.0,No
2020/05/10,16:10,0.176,0.161,0.271,0.244,0.257,0.140,0.084,south,8.7,No
2020/05/10,16:20,0.176,0.162,0.269,0.247,0.256,0.139,0.084,south-southeast,8.3,No
2020/05/10,16:30,0.176,0.161,0.272,0.247,0.256,0.139,0.084,south,9.3,No
2020/05/10,16:40,0.177,0.160,0.270,0.245,0.258,0.140,0.085,south-southeast,8.3,No
2020/05/10,16:50,0.175,0.161,0.269,0.248,0.258,0.139,0.083,south,9.8,No
2020/05/10,17:00,0.176,0.160,0.272,0.245,0.256,0.139,0.083,south,7.5,No
2020/05/10,17:10,0.177,0.162,0.270,0.247,0.258,0.139,0.084,south-southwest,6.4,No
2020/05/10,17:20,0.176,0.161,0.271,0.246,0.259,0.139,0.085,south-southwest,4.9,No
2020/05/10,17:30,0.177,0.162,0.271,0.246,0.256,0.140,0.084,south,0.6,No
2020/05/10,17:40,0.177,0.163,0.269,0.247,0.259,0.140,0.084,southwest,2.0,No
2020/05/10,17:50,0.176,0.161,0.272,0.246,0.259,0.139,0.084,south-southwest,6.5,No
2020/05/10,18:00,0.177,0.162,0.271,0.246,0.256,0.140,0.084,southwest,7.2,No
2020/05/10,18:10,0.176,0.161,0.271,0.246,0.259,0.139,0.084,south-southwest,6.8,No
2020/05/10,18:20,0.177,0.162,0.273,0.246,0.258,0.139,0.084,southwest,6.4,No
2020/05/10,18:30,0.177,0.161,0.269,0.247,0.255,0.141,0.084,south-southwest,5.8,No
2020/05/10,18:40,0.177,0.162,0.272,0.246,0.259,0.139,0.084,south-southwest,3.8,Yes
2020/05/10,18:50,0.177,0.162,0.269,0.248,0.256,0.140,0.085,south,3.8,No
2020/05/10,19:00,0.176,0.161,0.272,0.245,0.257,0.140,0.084,south,4.3,No
2020/05/10,19:10,0.178,0.162,0.271,0.248,0.258,0.140,0.084,south-southwest,5.3,No
2020/05/10,19:20,0.176,0.162,0.273,0.247,0.257,0.140,0.084,southwest,5.0,No
2020/05/10,19:30,0.178,0.162,0.272,0.246,0.259,0.139,0.084,southwest,5.0,No
2020/05/10,19:40,0.176,0.162,0.271,0.246,0.256,0.141,0.084,southwest,6.0,No
2020/05/10,19:50,0.177,0.163,0.271,0.246,0.258,0.140,0.085,west-southwest,5.2,No
2020/05/10,20:00,0.175,0.162,0.269,0.248,0.258,0.140,0.084,south-southwest,2.7,No
2020/05/10,20:10,0.177,0.162,0.272,0.246,0.256,0.140,0.085,south-southwest,3.7,No
2020/05/10,20:20,0.177,0.161,0.269,0.247,0.258,0.140,0.084,south-southwest,4.0,No
2020/05/10,20:30,0.177,0.163,0.273,0.245,0.255,0.140,0.085,west-southwest,3.7,No
2020/05/10,20:40,0.177,0.161,0.271,0.247,0.259,0.140,0.085,west-southwest,3.7,No
2020/05/10,20:50,0.176,0.163,0.272,0.246,0.259,0.141,0.084,west,4.4,No
2020/05/10,21:00,0.178,0.162,0.272,0.248,0.258,0.140,0.084,west,3.4,No
2020/05/10,21:10,0.176,0.163,0.271,0.247,0.258,0.141,0.084,west,5.2,No
2020/05/10,21:20,0.178,0.161,0.272,0.246,0.257,0.140,0.084,west,7.9,No
2020/05/10,21:30,0.177,0.164,0.270,0.247,0.260,0.140,0.084,west,7.8,No
2020/05/10,21:40,0.177,0.162,0.273,0.246,0.257,0.140,0.085,west-northwest,9.0,No
2020/05/10,21:50,0.178,0.163,0.271,0.248,0.257,0.140,0.084,west-northwest,8.9,No
2020/05/10,22:00,0.177,0.162,0.272,0.246,0.260,0.140,0.085,west,6.9,No
2020/05/10,22:10,0.179,0.162,0.273,0.248,0.256,0.140,0.085,west-northwest,5.5,No
2020/05/10,22:20,0.176,0.163,0.270,0.247,0.259,0.141,0.085,west-northwest,5.1,No
2020/05/10,22:30,0.177,0.161,0.274,0.247,0.259,0.138,0.084,northwest,4.4,No
2020/05/10,22:40,0.177,0.164,0.272,0.247,0.255,0.140,0.085,northwest,6.0,No
2020/05/10,22:50,0.176,0.162,0.270,0.246,0.260,0.141,0.085,west-northwest,5.8,No
2020/05/10,23:00,0.177,0.162,0.272,0.247,0.258,0.140,0.085,west-northwest,4.8,No
2020/05/10,23:10,0.177,0.162,0.271,0.246,0.256,0.140,0.085,west,4.4,No
2020/05/10,23:20,0.177,0.161,0.273,0.247,0.260,0.140,0.086,west,2.6,No
2020/05/10,23:30,0.177,0.162,0.271,0.247,0.256,0.140,0.085,west,2.8,No
2020/05/10,23:40,0.176,0.162,0.271,0.246,0.257,0.140,0.085,west-southwest,4.9,No
2020/05/10,23:50,0.178,0.163,0.272,0.247,0.260,0.141,0.085,west,3.5,No
